Location: Aufkirchen
(47.9603°N, 11.3653°E)
Time: 07:48:19
(UTC+01:00)

Transit 4A - Pass Details

Date: 01 December 2020
Orbit: 864 x 980 km, 66.8° (Epoch: 25 January)

Event Time Altitude Azimuth Distance (km) Brightness Sun altitude
Rises 07:22:50 0° 197° (SSW) 3,617 11.1 -3.8°
Reaches altitude 10° 07:25:23 10° 193° (SSW) 2,688 10.6 -3.4°
Maximum altitude 07:31:31 56° 117° (ESE) 1,143 8.9 -2.5°
Drops below altitude 10° 07:37:47 10° 41° (NE) 2,740 10.5 -1.6°
Sets 07:40:24 0° 37° (NE) 3,691 11.1 -1.3°
